COSMOS 2251 DEB, 33821

Orbit data source: Space-Track

COSMOS 2251 DEB, 33821 is space debris in LEO originally from a launch on Wed, 16 Jun 1993 UTC launched from the Plesetsk Missile And Space Complex (PKMTR). The debris from Iridium 33, an American commercial communications satellite, has been tracked extensively since its accidental collision with the defunct Russian satellite Cosmos 2251 in 2009. This event, occurring at high speed in low Earth orbit (LEO), generated thousands of pieces of space debris, significantly increasing the risk of further collisions. The Iridium 33 debris cloud has impacted space traffic management and orbital debris mitigation strategies, making it a subject of ongoing study in space situational awareness.

Loading next visibility...
Identifier
33821, 1993-036BN
Orbit
LEO
Country
Flag of CISCIS
Related business
Manufacturer
Unknown
Mission
Spacecraft
Bus & Motor
Unknown
Mass
Unknown
Launch date (UTC)
1993-06-16 (33 years ago)
Launch vehicle
Unknown
Launch site
Plesetsk Missile And Space Complex (PKMTR)
Object type
Payload
Rocket body
Debris
Shape & HBR
Unknown shape, 0.2 m
Radar Cross Section
Small (<0.1 m²)

Expand to show TLE details & history
Last TLE update: 7 hours ago

TLE from 7 hours ago
0 COSMOS 2251 DEB
1 33821U 93036BN  26034.42631708  .00036911  00000-0  12658-2 0  9998
2 33821  74.0287  31.1415 0046079  45.4228 315.0719 15.28964926758056
Epoch: 2026-02-03T10:13Z
TLE epoch observation values (Epoch: 2026-02-03T10:13:53.795Z)
Latitude
-0.00012°
Longitude
104.0599°
Altitude
459.326 km
Speed
7.65 km/s
True Right ascension
02h 04m 33s
True Declination
0° 00' 00"
Sunlit
Object was in daylight at epoch
Visualization orbit readout
Latitude
Unknown
Longitude
Unknown
Altitude
Unknown
Speed
Unknown
Apparent Right ascension
Unknown
Apparent Declination
Unknown
Sunlit
N/A
Visualization observer readout
Local Sidereal Time
19:38:47
Azimuth
Unknown
Elevation
Unknown
Doppler factor
Unknown
Orbital elements
Apogee altitude
508.013 km
Perigee altitude
444.843 km
Semi-major axis
6,854.565 km
Eccentricity
0.00461
Inclination
74.0287°
RAAN
31.1415°
Arg. of periapsis
45.4228°
True anomaly
314.69747°
Mean anomaly
315.0719°
Eccentric anomaly
314.88484°
Mean motion
3.82449 °/min
Orbital period
94.13 mins
BSTAR
0.0012658
Loading maneuver chart data...
Computing Atmospheric mass density...

Documentation

Showing up to 5 results
|